Denver Centennial, CO

9:41 PM MDT on September 25, 2017 (GMT -0600)
Centennial

Weather History for KAPA - October, 2013

Change the Weather History Date:

Monday, October 7, 2013

  Actual Average Record
Temperature  
Mean Temperature 57 °F -  
Max Temperature 77 °F 67 °F 80 °F (2010)
Min Temperature 36 °F 37 °F 25 °F (2012)
Degree Days  
Heating Degree Days 8    
Month to date heating degree days 104  
Growing Degree Days 8 (Base 50)    
Moisture  
Dew Point 27 °F    
Average Humidity 36    
Maximum Humidity 62    
Minimum Humidity 10    
Precipitation  
Precipitation 0.00 in - - ()
Month to date precipitation 0.00  
Year to date precipitation 16.81  
Sea Level Pressure  
Sea Level Pressure 30.02 in    
Wind  
Wind Speed 6 mph (SSE)    
Max Wind Speed 16 mph    
Max Gust Speed 21 mph    
Visibility 10 miles    
Events      
Averages and records for this station are not official NWS values.
T = Trace of Precipitation, MM = Missing Value Source: NWS Daily Summary

Daily Weather History Graph

Daily Weather History Graph

Search for Another Location

Airport or City:

Trip Planner

Search our weather history database for the weather conditions in past years. The results will help you decide how hot, cold, wet, or windy it might be!

Date:

Astronomy

Oct. 07, 2013 Rise Set
Actual Time 7:01 AM MDT 6:31 PM MDT
Civil Twilight 6:34 AM MDT 6:58 PM MDT
Nautical Twilight 6:03 AM MDT 7:29 PM MDT
Astronomical Twilight 5:32 AM MDT 8:01 PM MDT
Moon 9:53 AM MDT (10/7) 8:19 PM MDT (10/7)
Length of Visible Light 12h 24m
Length of Day
11h 30m
Waxing Crescent, 9% of the Moon is Illuminated
Oct 7
Waxing Crescent
Oct 11
First Quarter
Oct 18
Full
Oct 26
Last Quarter
Nov 3
New

Hourly Weather History & Observations

Time (MDT) Temp. Windchill Dew Point Humidity Pressure Visibility Wind Dir Wind Speed Gust Speed Precip Events Conditions
12:53 AM 46.9 °F - 32.0 °F 56% 30.15 in 10.0 mi SE 8.1 mph - N/A   Partly Cloudy
1:53 AM 43.0 °F 39.5 °F 30.9 °F 62% 30.15 in 10.0 mi SSE 5.8 mph - N/A   Partly Cloudy
2:53 AM 45.0 °F 41.2 °F 28.9 °F 53% 30.12 in 10.0 mi SSE 6.9 mph - N/A   Partly Cloudy
3:53 AM 42.1 °F 37.7 °F 28.0 °F 58% 30.12 in 10.0 mi South 6.9 mph - N/A   Partly Cloudy
4:53 AM 43.0 °F 41.3 °F 27.0 °F 53% 30.12 in 10.0 mi South 3.5 mph - N/A   Partly Cloudy
5:53 AM 43.0 °F 40.3 °F 27.0 °F 53% 30.12 in 10.0 mi SSE 4.6 mph - N/A   Clear
6:53 AM 39.9 °F 37.8 °F 27.0 °F 60% 30.15 in 10.0 mi SE 3.5 mph - N/A   Clear
7:53 AM 43.0 °F 41.3 °F 30.0 °F 60% 30.16 in 10.0 mi SE 3.5 mph - N/A   Clear
8:53 AM 53.1 °F - 34.0 °F 48% 30.12 in 10.0 mi Calm Calm - N/A   Clear
9:53 AM 61.0 °F - 28.0 °F 29% 30.12 in 10.0 mi Calm Calm - N/A   Partly Cloudy
10:53 AM 64.4 °F - 28.4 °F 26% 30.07 in 10.0 mi Variable 3.5 mph - N/A   Partly Cloudy
11:53 AM 68.0 °F - 28.4 °F 23% 30.03 in 10.0 mi Variable 3.5 mph - N/A   Partly Cloudy
12:53 PM 72.0 °F - 21.9 °F 15% 29.98 in 10.0 mi SE 4.6 mph - N/A   Partly Cloudy
1:53 PM 75.0 °F - 17.1 °F 11% 29.96 in 10.0 mi Variable 4.6 mph - N/A   Partly Cloudy
2:53 PM 75.0 °F - 17.1 °F 11% 29.93 in 10.0 mi ESE 5.8 mph - N/A   Partly Cloudy
3:53 PM 77.0 °F - 18.0 °F 11% 29.91 in 10.0 mi Calm Calm - N/A   Scattered Clouds
4:53 PM 73.9 °F - 25.0 °F 16% 29.90 in 10.0 mi ESE 5.8 mph - N/A   Partly Cloudy
5:53 PM 69.1 °F - 32.0 °F 25% 29.92 in 10.0 mi ESE 9.2 mph - N/A   Scattered Clouds
6:53 PM 64.9 °F - 28.9 °F 26% 29.94 in 10.0 mi SSE 10.4 mph - N/A   Scattered Clouds
7:53 PM 62.1 °F - 28.0 °F 28% 29.94 in 10.0 mi SSE 11.5 mph - N/A   Mostly Cloudy
8:53 PM 61.0 °F - 28.0 °F 29% 29.91 in 10.0 mi South 11.5 mph - N/A   Mostly Cloudy
9:53 PM 57.0 °F - 28.9 °F 34% 29.89 in 10.0 mi South 8.1 mph - N/A   Mostly Cloudy
10:53 PM 50.0 °F - 32.0 °F 50% 29.88 in 10.0 mi South 5.8 mph - N/A   Scattered Clouds
11:53 PM 55.0 °F - 28.0 °F 35% 29.83 in 10.0 mi South 5.8 mph - N/A   Scattered Clouds